Time,TemperatureF,DewpointF,PressureIn,WindDirection,WindDirectionDegrees,WindSpeedMPH,WindSpeedGustMPH,Humidity,HourlyPrecipIn,Conditions,Clouds,dailyrainin,SoftwareType,DateUTC
2013-07-25 00:02:00,83.0,76.0,29.97,WNW,302,1.0,4.0,80,0.00,,,0.00,,2013-07-25 04:02:00,
2013-07-25 00:43:00,83.0,76.0,29.97,WNW,293,2.0,4.0,79,0.00,,,0.00,,2013-07-25 04:43:00,
2013-07-25 00:53:00,83.0,76.0,29.96,West,275,1.0,4.0,79,0.00,,,0.00,,2013-07-25 04:53:00,
2013-07-25 01:02:00,83.0,76.0,29.96,West,263,2.0,2.0,79,0.00,,,0.00,,2013-07-25 05:02:00,
2013-07-25 01:43:00,82.0,75.0,29.96,WNW,290,1.0,2.0,80,0.00,,,0.00,,2013-07-25 05:43:00,
2013-07-25 01:52:00,82.0,75.0,29.95,WNW,286,1.0,2.0,80,0.00,,,0.00,,2013-07-25 05:52:00,
2013-07-25 02:12:00,82.0,75.0,29.95,WNW,294,2.0,2.0,80,0.00,,,0.00,,2013-07-25 06:12:00,
2013-07-25 02:22:00,82.0,75.0,29.95,WNW,296,0.0,2.0,80,0.00,,,0.00,,2013-07-25 06:22:00,
2013-07-25 02:32:00,82.0,75.0,29.94,WNW,293,3.0,5.0,79,0.00,,,0.00,,2013-07-25 06:32:00,
2013-07-25 02:42:00,82.0,75.0,29.94,WNW,291,2.0,2.0,79,0.00,,,0.00,,2013-07-25 06:42:00,
2013-07-25 02:52:00,82.0,74.0,29.94,West,267,1.0,2.0,78,0.00,,,0.00,,2013-07-25 06:52:00,
2013-07-25 03:02:00,82.0,75.0,29.93,West,263,2.0,3.0,80,0.00,,,0.00,,2013-07-25 07:02:00,
2013-07-25 03:12:00,82.0,75.0,29.93,West,271,1.0,3.0,80,0.00,,,0.00,,2013-07-25 07:12:00,
2013-07-25 03:22:00,82.0,75.0,29.93,WNW,284,3.0,4.0,80,0.00,,,0.00,,2013-07-25 07:22:00,
2013-07-25 03:33:00,82.0,75.0,29.93,West,269,4.0,5.0,80,0.00,,,0.00,,2013-07-25 07:33:00,
2013-07-25 03:43:00,82.0,75.0,29.93,West,276,2.0,4.0,80,0.00,,,0.00,,2013-07-25 07:43:00,
2013-07-25 03:53:00,82.0,75.0,29.93,WNW,290,2.0,4.0,80,0.00,,,0.00,,2013-07-25 07:53:00,
2013-07-25 04:02:00,82.0,75.0,29.93,WNW,286,2.0,4.0,80,0.00,,,0.00,,2013-07-25 08:02:00,
2013-07-25 04:12:00,82.0,75.0,29.92,West,279,2.0,4.0,80,0.00,,,0.00,,2013-07-25 08:12:00,
2013-07-25 04:22:00,82.0,75.0,29.92,WSW,254,3.0,5.0,80,0.00,,,0.00,,2013-07-25 08:22:00,
2013-07-25 04:32:00,82.0,75.0,29.92,West,281,5.0,7.0,79,0.00,,,0.00,,2013-07-25 08:32:00,
2013-07-25 04:44:00,82.0,75.0,29.92,West,281,2.0,6.0,79,0.00,,,0.00,,2013-07-25 08:44:00,
2013-07-25 04:52:00,82.0,75.0,29.92,West,273,3.0,5.0,79,0.00,,,0.00,,2013-07-25 08:52:00,
2013-07-25 05:02:00,82.0,75.0,29.92,West,276,1.0,4.0,80,0.00,,,0.00,,2013-07-25 09:02:00,
2013-07-25 05:12:00,82.0,75.0,29.92,WNW,283,1.0,4.0,80,0.00,,,0.00,,2013-07-25 09:12:00,
2013-07-25 05:22:00,82.0,75.0,29.92,West,273,2.0,4.0,80,0.00,,,0.00,,2013-07-25 09:22:00,
2013-07-25 05:43:00,82.0,75.0,29.93,WNW,283,1.0,5.0,80,0.00,,,0.00,,2013-07-25 09:43:00,
2013-07-25 05:52:00,79.0,74.0,29.93,SSE,167,0.0,4.0,86,0.00,,,0.00,,2013-07-25 09:52:00,
2013-07-25 06:02:00,79.0,74.0,29.93,SSE,168,0.0,0.0,86,0.00,,,0.00,,2013-07-25 10:02:00,
2013-07-25 06:12:00,79.0,74.0,29.93,SSE,168,0.0,5.0,86,0.00,,,0.00,,2013-07-25 10:12:00,
2013-07-25 06:53:00,79.0,75.0,29.93,SE,127,4.0,8.0,87,0.00,,,0.00,,2013-07-25 10:53:00,
2013-07-25 07:02:00,79.0,74.0,29.93,ESE,119,6.0,11.0,86,0.00,,,0.00,,2013-07-25 11:02:00,
2013-07-25 07:43:00,80.0,74.0,29.95,ESE,123,0.0,7.0,83,0.00,,,0.00,,2013-07-25 11:43:00,
2013-07-25 07:52:00,80.0,75.0,29.95,ESE,123,1.0,7.0,84,0.00,,,0.00,,2013-07-25 11:52:00,
2013-07-25 08:03:00,80.0,75.0,29.96,SE,125,5.0,8.0,84,0.00,,,0.00,,2013-07-25 12:03:00,
2013-07-25 08:45:00,81.0,76.0,29.97,ESE,122,4.0,8.0,84,0.00,,,0.00,,2013-07-25 12:45:00,
2013-07-25 08:53:00,82.0,76.0,29.98,SE,125,4.0,9.0,83,0.00,,,0.00,,2013-07-25 12:53:00,
2013-07-25 09:53:00,85.0,77.0,29.98,SE,125,6.0,11.0,76,0.00,,,0.00,,2013-07-25 13:53:00,
2013-07-25 10:02:00,86.0,78.0,29.98,ESE,118,5.0,10.0,76,0.00,,,0.00,,2013-07-25 14:02:00,
2013-07-25 10:43:00,87.0,78.0,29.99,ESE,105,8.0,11.0,74,0.00,,,0.00,,2013-07-25 14:43:00,
2013-07-25 10:53:00,87.0,77.0,30.00,ESE,115,7.0,12.0,73,0.00,,,0.00,,2013-07-25 14:53:00,
2013-07-25 11:12:00,87.0,77.0,30.00,ESE,115,4.0,11.0,73,0.00,,,0.00,,2013-07-25 15:12:00,
2013-07-25 11:44:00,88.0,77.0,30.01,ESE,107,6.0,14.0,70,0.00,,,0.00,,2013-07-25 15:44:00,
2013-07-25 11:52:00,89.0,78.0,30.01,SE,126,8.0,13.0,70,0.00,,,0.00,,2013-07-25 15:52:00,
2013-07-25 12:22:00,89.0,78.0,30.02,ESE,119,5.0,11.0,70,0.00,,,0.00,,2013-07-25 16:22:00,
2013-07-25 12:33:00,89.0,77.0,30.02,SE,142,0.0,7.0,69,0.00,,,0.00,,2013-07-25 16:33:00,
2013-07-25 12:45:00,89.0,78.0,30.02,SE,140,3.0,7.0,70,0.00,,,0.00,,2013-07-25 16:45:00,
2013-07-25 12:53:00,89.0,78.0,30.02,SE,136,1.0,8.0,70,0.00,,,0.00,,2013-07-25 16:53:00,
2013-07-25 13:03:00,89.0,77.0,30.02,SE,135,3.0,8.0,69,0.00,,,0.00,,2013-07-25 17:03:00,
2013-07-25 13:53:00,88.0,78.0,30.02,SW,223,3.0,10.0,73,0.00,,,0.00,,2013-07-25 17:53:00,
2013-07-25 14:02:00,88.0,78.0,30.02,SW,228,2.0,12.0,73,0.00,,,0.00,,2013-07-25 18:02:00,
2013-07-25 14:43:00,88.0,78.0,30.01,SSE,148,3.0,6.0,72,0.00,,,0.00,,2013-07-25 18:43:00,
2013-07-25 14:52:00,88.0,77.0,30.02,SSW,211,2.0,10.0,71,0.00,,,0.00,,2013-07-25 18:52:00,
2013-07-25 15:12:00,89.0,77.0,30.01,SW,219,3.0,9.0,69,0.00,,,0.00,,2013-07-25 19:12:00,
2013-07-25 15:22:00,89.0,77.0,30.01,SW,215,5.0,10.0,68,0.00,,,0.00,,2013-07-25 19:22:00,
2013-07-25 15:33:00,89.0,78.0,30.01,SW,231,2.0,8.0,70,0.00,,,0.00,,2013-07-25 19:33:00,
2013-07-25 15:43:00,89.0,77.0,30.01,SW,214,4.0,9.0,69,0.00,,,0.00,,2013-07-25 19:43:00,
2013-07-25 15:52:00,89.0,77.0,30.01,SW,219,3.0,8.0,69,0.00,,,0.00,,2013-07-25 19:52:00,
2013-07-25 16:12:00,89.0,77.0,30.00,South,173,3.0,8.0,69,0.00,,,0.00,,2013-07-25 20:12:00,
2013-07-25 16:22:00,89.0,77.0,30.00,SW,224,4.0,10.0,68,0.00,,,0.00,,2013-07-25 20:22:00,
2013-07-25 16:32:00,89.0,77.0,30.00,SSW,207,2.0,7.0,68,0.00,,,0.00,,2013-07-25 20:32:00,
2013-07-25 16:43:00,89.0,77.0,30.00,SE,139,0.0,7.0,69,0.00,,,0.00,,2013-07-25 20:43:00,
2013-07-25 16:53:00,89.0,77.0,30.00,South,188,1.0,8.0,67,0.00,,,0.00,,2013-07-25 20:53:00,
2013-07-25 17:44:00,88.0,77.0,30.00,SSE,161,1.0,11.0,69,0.00,,,0.00,,2013-07-25 21:44:00,
2013-07-25 17:52:00,88.0,77.0,30.01,SE,137,4.0,7.0,69,0.00,,,0.00,,2013-07-25 21:52:00,
2013-07-25 18:12:00,88.0,76.0,30.01,SSW,208,4.0,7.0,68,0.00,,,0.00,,2013-07-25 22:12:00,
2013-07-25 18:22:00,88.0,77.0,30.00,SSE,152,3.0,7.0,70,0.00,,,0.00,,2013-07-25 22:22:00,
2013-07-25 18:32:00,88.0,77.0,30.01,SE,144,2.0,8.0,71,0.00,,,0.00,,2013-07-25 22:32:00,
2013-07-25 18:43:00,87.0,76.0,30.01,South,188,2.0,6.0,70,0.00,,,0.00,,2013-07-25 22:43:00,
2013-07-25 18:52:00,87.0,76.0,30.01,SW,219,3.0,8.0,70,0.00,,,0.00,,2013-07-25 22:52:00,
2013-07-25 19:02:00,87.0,76.0,30.01,SSE,155,2.0,7.0,70,0.00,,,0.00,,2013-07-25 23:02:00,
2013-07-25 19:22:00,86.0,76.0,30.01,SSE,161,2.0,8.0,72,0.00,,,0.00,,2013-07-25 23:22:00,
2013-07-25 19:32:00,86.0,76.0,30.01,South,182,1.0,8.0,73,0.00,,,0.00,,2013-07-25 23:32:00,
2013-07-25 19:43:00,86.0,77.0,30.01,South,174,2.0,7.0,74,0.00,,,0.00,,2013-07-25 23:43:00,
2013-07-25 19:52:00,85.0,76.0,30.01,South,173,1.0,8.0,74,0.00,,,0.00,,2013-07-25 23:52:00,
2013-07-25 20:02:00,85.0,76.0,30.01,South,189,3.0,7.0,75,0.00,,,0.00,,2013-07-26 00:02:00,
2013-07-25 20:12:00,85.0,76.0,30.01,SW,215,3.0,8.0,75,0.00,,,0.00,,2013-07-26 00:12:00,
2013-07-25 20:22:00,85.0,76.0,30.01,SSW,197,3.0,6.0,75,0.00,,,0.00,,2013-07-26 00:22:00,
2013-07-25 20:33:00,84.0,76.0,30.01,South,184,1.0,5.0,76,0.00,,,0.00,,2013-07-26 00:33:00,
2013-07-25 20:43:00,84.0,76.0,30.01,South,186,1.0,5.0,77,0.00,,,0.00,,2013-07-26 00:43:00,
2013-07-25 20:52:00,84.0,76.0,30.01,SSW,201,0.0,7.0,77,0.00,,,0.00,,2013-07-26 00:52:00,
2013-07-25 21:12:00,84.0,76.0,30.02,South,169,2.0,7.0,78,0.00,,,0.00,,2013-07-26 01:12:00,
2013-07-25 21:43:00,84.0,77.0,30.03,SSW,198,1.0,8.0,79,0.00,,,0.00,,2013-07-26 01:43:00,
2013-07-25 21:52:00,84.0,77.0,30.03,SSW,198,0.0,5.0,79,0.00,,,0.00,,2013-07-26 01:52:00,
2013-07-25 22:12:00,83.0,76.0,30.03,SSE,163,0.0,4.0,79,0.00,,,0.00,,2013-07-26 02:12:00,
2013-07-25 22:22:00,83.0,76.0,30.03,SSE,160,0.0,6.0,79,0.00,,,0.00,,2013-07-26 02:22:00,
2013-07-25 22:32:00,83.0,76.0,30.03,SSE,156,0.0,6.0,79,0.00,,,0.00,,2013-07-26 02:32:00,
2013-07-25 22:43:00,83.0,76.0,30.03,SSE,154,1.0,5.0,80,0.00,,,0.00,,2013-07-26 02:43:00,
2013-07-25 22:52:00,83.0,76.0,30.03,SSE,155,0.0,5.0,80,0.00,,,0.00,,2013-07-26 02:52:00,
2013-07-25 23:53:00,82.0,76.0,30.03,SE,138,0.0,4.0,81,0.00,,,0.00,,2013-07-26 03:53:00,